EW5806 Weather Reports


time (UTC)temp
F
wind
direction
speed
knots
gust
knots
rain 1hr
in
rain 24hr
in
rain mn
in
humidity
%
barometer
mb
20260510232606 67 158 3.5 4.3 0.00 0.05 0.00 53 1012.5
20260510230607 68 113 0.9 1.7 0.00 0.05 0.00 50 1012.4
20260510225631 68 135 1.7 1.7 0.00 0.00 0.00 50 1012.3
20260510224609 67 270 0.0 0.0 0.00 0.05 0.00 49 1012.4
20260510223630 68 248 0.0 0.0 0.00 0.05 0.00 50 1012.5
20260510222606 69 135 1.7 1.7 0.00 0.05 0.00 47 1012.4
20260510221632 71 90 1.7 3.5 0.00 0.05 0.00 43 1012.5
20260510220606 71 135 1.7 3.5 0.00 0.05 0.00 43 1012.4
20260510215630 71 90 3.5 4.3 0.00 0.00 0.00 43 1012.2
20260510214607 71 135 3.5 5.2 0.00 0.00 0.00 43 1012.3
20260510213632 71 113 1.7 3.5 0.00 0.00 0.00 44 1012.2
20260510212608 72 113 3.5 5.2 0.00 0.00 0.00 43 1012.2
20260510211630 72 90 1.7 4.3 0.00 0.00 0.00 42 1012.1
20260510210607 72 113 4.3 6.1 0.00 0.00 0.00 42 1012.0
20260510205630 72 45 3.5 6.1 0.00 0.00 0.00 43 1011.8
20260510203631 72 113 3.5 6.1 0.00 0.00 0.00 44 1011.5
20260510202609 73 90 1.7 3.5 0.00 0.00 0.00 43 1011.4
20260510201630 74 45 2.6 7.0 0.00 0.00 0.00 41 1011.3
20260510200608 74 90 3.5 7.0 0.00 0.00 0.00 39 1011.1
20260510195632 74 45 1.7 4.3 0.00 0.00 0.00 41 1011.0
20260510194607 74 68 1.7 5.2 0.00 0.00 0.00 41 1011.0
20260510193630 74 68 3.5 5.2 0.00 0.00 0.00 44 1010.9
20260510192607 74 90 3.5 5.2 0.00 0.00 0.00 45 1010.7
20260510191630 74 90 1.7 4.3 0.00 0.00 0.00 45 1010.5
20260510190607 75 113 1.7 3.5 0.00 0.00 0.00 44 1010.4
20260510185630 76 113 3.5 6.1 0.00 0.00 0.00 43 1010.2
20260510184606 76 90 4.3 5.2 0.00 0.00 0.00 41 1010.1
20260510183632 77 45 2.6 6.1 0.00 0.00 0.00 40 1010.1
20260510182607 78 68 4.3 7.8 0.00 0.00 0.00 39 1009.9
20260510181634 78 113 1.7 1.7 0.00 0.00 0.00 39 1009.8
20260510175630 79 90 4.3 9.6 0.00 0.00 0.00 37 1009.7
20260510174607 79 23 7.0 9.6 0.00 0.00 0.00 36 1009.7
20260510173631 79 90 7.0 11.3 0.00 0.00 0.00 35 1009.6
20260510172608 80 113 7.0 13.0 0.00 0.00 0.00 35 1009.6
20260510171630 80 68 7.0 9.6 0.00 0.00 0.00 34 1009.6
20260510170606 80 45 8.7 20.0 0.00 0.00 0.00 34 1009.7
20260510164608 80 23 7.0 12.2 0.00 0.00 0.00 34 1009.5
20260510163632 80 68 9.6 13.9 0.00 0.00 0.00 34 1009.5
20260510162608 81 113 6.1 9.6 0.00 0.00 0.00 34 1009.5
20260510161631 80 90 9.6 15.6 0.00 0.00 0.00 35 1009.4
20260510160606 80 0 7.0 11.3 0.00 0.00 0.00 34 1009.5
20260510155630 80 68 8.7 13.0 0.00 0.00 0.00 35 1009.5
20260510153631 79 23 9.6 17.4 0.00 0.00 0.00 34 1009.6
20260510152607 80 45 7.8 17.4 0.00 0.00 0.00 33 1009.7
20260510145630 80 90 11.3 20.0 0.00 0.00 0.00 34 1009.9
20260510144607 81 23 7.0 14.8 0.00 0.00 0.00 35 1010.0
20260510143631 80 45 7.0 9.6 0.00 0.00 0.00 35 1010.4
20260510142607 81 68 5.2 9.6 0.00 0.00 0.00 35 1010.6
20260510141631 80 113 7.8 13.0 0.00 0.00 0.00 35 1010.8
20260510140607 79 338 9.6 13.0 0.00 0.00 0.00 36 1010.9
20260510135630 75 270 4.3 9.6 0.00 0.00 0.00 57 1011.0
20260510134607 75 0 6.1 9.6 0.00 0.00 0.00 59 1011.0
20260510133631 76 23 5.2 12.2 0.00 0.00 0.00 56 1011.2
20260510132606 80 90 7.0 13.0 0.00 0.00 0.00 36 1011.3
20260510125630 80 68 8.7 13.9 0.00 0.00 0.00 36 1011.5
20260510124606 79 45 9.6 14.8 0.00 0.00 0.00 37 1011.6
20260510123630 79 68 7.8 13.9 0.00 0.00 0.00 38 1011.7
20260510121630 78 0 6.1 12.2 0.00 0.00 0.00 40 1012.0
20260510115631 78 270 7.0 13.0 0.00 0.00 0.00 50 1012.6
20260510113632 79 0 6.1 13.0 0.00 0.00 0.00 41 1012.6
20260510112608 78 23 7.0 12.2 0.00 0.00 0.00 42 1012.9
20260510111632 78 90 6.1 15.6 0.00 0.00 0.00 42 1012.9
20260510110606 78 68 6.1 9.6 0.00 0.00 0.00 43 1012.9
20260510105632 75 225 4.3 9.6 0.00 0.00 0.00 57 1013.0
20260510103631 73 315 4.3 7.0 0.00 0.00 0.00 62 1013.2
20260510101631 73 315 4.3 7.0 0.00 0.00 0.00 65 1013.4
20260510100608 73 68 4.3 7.8 0.00 0.00 0.00 68 1013.5
20260510095631 72 68 3.5 6.1 0.00 0.01 0.00 70 1013.6
20260510094607 71 0 3.5 6.1 0.00 0.01 0.00 73 1013.4
20260510093632 70 293 2.6 4.3 0.00 0.02 0.00 75 1013.5
20260510092607 70 315 4.3 7.0 0.00 0.04 0.00 72 1013.6
20260510091631 69 293 4.3 6.1 0.00 0.05 0.00 69 1013.7
20260510090610 69 293 2.6 4.3 0.00 0.05 0.00 62 1013.6
20260510085631 69 0 1.7 4.3 0.00 0.05 0.00 56 1013.8
20260510084607 70 338 2.6 4.3 0.00 0.05 0.00 62 1013.7
20260510083631 69 270 1.7 3.5 0.00 0.05 0.00 70 1013.7
20260510082607 69 293 3.5 5.2 0.00 0.05 0.00 70 1013.7
20260510081631 71 293 2.6 4.3 0.00 0.05 0.00 64 1013.7
20260510080608 70 158 0.9 1.7 0.00 0.05 0.00 57 1013.8
20260510075630 69 248 1.7 1.7 0.00 0.05 0.00 58 1013.9
20260510074607 68 135 0.0 1.7 0.00 0.05 0.00 60 1013.9
20260510073631 67 270 1.7 4.3 0.00 0.05 0.00 63 1013.9
20260510072607 65 225 1.7 3.5 0.00 0.05 0.00 65 1014.0
20260510071631 65 225 3.5 5.2 0.00 0.05 0.00 68 1014.0
20260510065631 63 248 1.7 4.3 0.00 0.05 0.00 73 1014.0
20260510063632 61 113 2.6 5.2 0.00 0.05 0.00 74 1013.9
20260510062607 60 180 1.7 5.2 0.00 0.05 0.00 76 1013.8
20260510061631 60 203 2.6 4.3 0.00 0.05 0.00 78 1013.7
20260510060608 60 180 2.6 4.3 0.00 0.05 0.00 79 1013.7
20260510055631 59 158 1.7 4.3 0.00 0.05 0.00 80 1013.7
20260510053631 59 135 2.6 4.3 0.00 0.05 0.00 80 1013.5
20260510052608 58 158 1.7 1.7 0.00 0.05 0.00 80 1013.4
20260510051631 58 113 2.6 4.3 0.00 0.05 0.00 82 1013.3
20260510050608 58 158 0.9 1.7 0.00 0.05 0.00 81 1013.2
20260510045631 59 225 0.9 1.7 0.00 0.05 0.00 80 1013.2
20260510044607 59 113 1.7 1.7 0.00 0.05 0.00 81 1013.2
20260510043631 59 180 1.7 4.3 0.00 0.05 0.00 80 1013.1
20260510042608 59 113 3.5 5.2 0.00 0.05 0.00 81 1013.1
20260510041631 59 135 2.6 4.3 0.00 0.05 0.00 81 1013.1
20260510040608 59 135 3.5 4.3 0.00 0.05 0.00 82 1013.2
20260510035631 59 135 2.6 4.3 0.00 0.05 0.00 83 1013.2
20260510034609 59 135 3.5 5.2 0.00 0.05 0.00 84 1013.1
20260510033631 59 113 2.6 3.5 0.00 0.05 0.00 84 1013.1
20260510032608 59 113 1.7 3.5 0.00 0.05 0.00 84 1013.0
20260510031631 59 113 3.5 4.3 0.00 0.05 0.00 84 1013.1
20260510030608 59 113 1.7 1.7 0.00 0.05 0.00 84 1013.1
20260510025632 59 113 0.9 1.7 0.00 0.05 0.00 84 1013.1
20260510024607 59 158 1.7 1.7 0.00 0.05 0.00 84 1013.0
20260510023631 59 135 1.7 3.5 0.00 0.05 0.00 83 1012.9
20260510021631 59 158 1.7 3.5 0.00 0.05 0.00 83 1012.8
20260510020607 59 135 1.7 3.5 0.00 0.05 0.00 83 1012.8
20260510015631 59 203 1.7 3.5 0.00 0.05 0.00 83 1012.7
20260510014608 60 135 1.7 1.7 0.00 0.05 0.00 83 1012.8
20260510013631 60 180 0.9 1.7 0.00 0.05 0.00 83 1012.7
20260510011632 60 135 1.7 3.5 0.00 0.05 0.00 83 1013.0
20260510005632 60 135 1.7 1.7 0.00 0.05 0.00 83 1012.9
20260510004609 60 158 1.7 1.7 0.00 0.05 0.00 82 1013.1
20260510002607 61 135 0.0 0.0 0.00 0.05 0.00 81 1013.2
20260510001631 62 135 0.0 1.7 0.00 0.05 0.00 81 1013.3
20260510000608 62 113 0.0 0.0 0.00 0.05 0.00 81 1013.3
20260509235631 61 180 0.0 1.7 0.05 0.15 0.05 81 1013.2